Tracking 32139 objects as of 18-Nov-2025
HD Live streaming from Space Station
objects crossing your sky now

IRIDIUM 33 DEB

Track IRIDIUM 33 DEB now!
10-day predictions


NORAD ID: 46965
Int'l Code: 1997-051ABX
Perigee: 685.3 km
Apogee: 715.0 km
Inclination: 86.3 °
Period: 98.6 minutes
Semi major axis: 7071 km
RCS: Unknown
Launch date: September 14, 1997
Source: United States (US)
Launch site: TYURATAM MISSILE AND SPACE COMPLEX (TTMTR)

Note: This is SATELLITE DEBRIS
Your satellite tracking list
Your tracking list is empty




NASA's NSSDC Master Catalog

Two Line Element Set (TLE):
1 46965U 97051ABX 25320.86302576  .00005180  00000-0  10711-2 0  9997
2 46965  86.3377 352.1719 0020975  58.3363 116.5212 14.60045141618903
Source of the keplerian elements: AFSPC